Regional Weather Roundup
Issued by NWS Kansas City/Pleasant Hill, MO

Home | Current Version | Previous Version | Text Only | Print | Product List | Glossary On
Versions: 1 2 3 4 5 6 7 8 9 10 11 12 13 14 15 16 17 18 19 20 21 22 23 24 25 26 27
000
ASUS43 KEAX 101810
RWREAX

WEATHER ROUNDUP FOR EASTERN KANSAS AND NORTHWEST MISSOURI
NATIONAL WEATHER SERVICE KANSAS CITY/PLEASANT HILL MO
1200 PM CST SAT DEC 10 2016

KSZ040-057-103>105-MOZ028-029-037-043-101900-
...KANSAS CITY METROPOLITAN AREA...

CITY           SKY/WX    TMP DP  RH WIND       PRES   REMARKS
K.C. INTL      CLOUDY    33  16  49 SE9       30.31F WCI  25
6HR MIN TEMP:  26; 6HR MAX TEMP:  33;

K.C. DOWNTOWN  CLOUDY    34  18  52 SE5       30.33F WCI  30
6HR MIN TEMP:  28; 6HR MAX TEMP:  34;

LEES SUMMIT    CLOUDY    33  19  56 SE10      30.33F WCI  25
6HR MIN TEMP:  26; 6HR MAX TEMP:  33;

OLATHE - IXD   CLOUDY    33  20  58 SE10      30.30F WCI  25
6HR MIN TEMP:  26; 6HR MAX TEMP:  33;

OLATHE - OJC   CLOUDY    32  19  58 SE12      30.30F WCI  23
6HR MIN TEMP:  24; 6HR MAX TEMP:  32;

LAWRENCE       CLOUDY    33  21  61 SE9       30.31F WCI  25

$$

MOZ001>008-011>017-020>025-030>033-038>040-044>046-053-054-101900-
...NORTHERN AND CENTRAL MISSOURI...

CITY           SKY/WX    TMP DP  RH WIND       PRES   REMARKS
ST. JOSEPH     CLOUDY    33  16  49 SE8       30.33F WCI  26
6HR MIN TEMP:  26; 6HR MAX TEMP:  33;

MOSBY          CLOUDY    32  19  59 E7        30.33F WCI  26
WARRENSBURG    CLOUDY    34  21  60 SE9       30.34F WCI  26
WHITEMAN AFB   CLOUDY    36  18  49 S8        30.34F WCI  29
6HR MIN TEMP:  26; 6HR MAX TEMP:  36;

CLINTON        CLOUDY    37  19  48 SE8       30.37F WCI  31
SEDALIA        CLOUDY    36  17  46 SE7       30.38F WCI  30
6HR MIN TEMP:  26; 6HR MAX TEMP:  36;

WARSAW         NOT AVBL
CHILLICOTHE      N/A     31  15  52 SE7       30.39F WCI  24
6HR MIN TEMP:  25; 6HR MAX TEMP:  31;

KIRKSVILLE     CLOUDY    29  13  51 SE13      30.39F WCI  19
6HR MIN TEMP:  24; 6HR MAX TEMP:  30;


$$

MOZ041-047>049-056>058-063>065-088>090-097-101900-
...EASTERN AND SOUTHERN MISSOURI...

CITY           SKY/WX    TMP DP  RH WIND       PRES   REMARKS
ST. LOUIS INTL CLOUDY    33  15  47 SE8       30.48F WCI  26
6HR MIN TEMP:  27; 6HR MAX TEMP:  33;

SPIRIT OF STL  CLOUDY    33  18  53 E6        30.46F WCI  28
COLUMBIA       CLOUDY    31  16  54 SE7       30.40F WCI  24
JEFFERSON CITY CLOUDY    31  16  54 E6        30.43F WCI  25
ROLLA          CLOUDY    30  18  60 SE10      30.39F WCI  21
OSAGE BEACH    CLOUDY    33  17  51 S6        30.40F WCI  28
SPRINGFIELD    CLOUDY    36  18  48 SE13      30.35F WCI  27
BRANSON        CLOUDY    37  19  48 SE9       30.39F WCI  31
JOPLIN         CLOUDY    40  14  34 S12       30.34F WCI  33
WEST PLAINS    CLOUDY    30  15  53 S12       30.44F WCI  20

$$

IAZ060-094-KSZ022-034>040-054-083-096-NEZ052-066-093-101900-
...KANSAS...SOUTHEAST NEBRASKA AND IOWA...

CITY           SKY/WX    TMP DP  RH WIND       PRES   REMARKS
TOPEKA         CLOUDY    35  19  52 SE9       30.30F WCI  28
6HR MIN TEMP:  26; 6HR MAX TEMP:  35;

MANHATTAN      CLOUDY    36  17  46 SE8       30.23F WCI  30
EMPORIA        CLOUDY    34  20  56 S10       30.26F WCI  26
CHANUTE        CLOUDY    39  21  48 SE16      30.29F WCI  30
WICHITA        PTSUNNY   40  21  46 S23       30.19F WCI  30
OMAHA          CLOUDY    28  18  66 SE15      30.28F WCI  16
LINCOLN        CLOUDY    31  15  52 SE17      30.24F WCI  19
FALLS CITY     MOSUNNY   33  14  45 S13       30.28F WCI  24
LAMONI         CLOUDY    28  12  51 SE8G17    30.32F WCI  20
DES MOINES     LGT SNOW  23  19  85 SE10      30.35F FOG     WCI  12

$$





USA.gov is the U.S. government's official web portal to all federal, state and local government web resources and services.